Simultaneous Nadir Overpasses (SNOs) Predictions

Prediction of SNOs between METOP-B and NOAA-19 Satellite Orbit:

Table of predicted SNOs for the next 14.0 days since TLE Epoch: 10/12/2018
Index Date (METOP-B) Time (METOP-B) Lat,Lon (METOP-B) SZA (METOP-B ) Date (NOAA-19) Time (NOAA-19) Lat,Lon (NOAA-19) SZA (NOAA-19 ) Distance(km) Time Diff (sec)
1 10/15/2018 06:37:37 -79.03, -85.76 92.03 10/15/2018 06:36:32 -79.01, -89.77 92.26 84.94 65
2 10/15/2018 07:28:25 78.73, 79.62 87.60 10/15/2018 07:27:19 78.73, 79.64 87.58 1.03 66
3 10/15/2018 08:19:07 -78.72,-113.14 92.41 10/15/2018 08:18:25 -78.74,-113.24 92.41 3.30 42
4 10/15/2018 09:09:47 78.72, 54.18 87.60 10/15/2018 09:09:20 78.73, 54.15 87.60 0.97 27
5 10/15/2018 10:00:29 -78.70,-138.58 92.41 10/15/2018 10:00:25 -78.71,-138.49 92.40 1.99 4
6 10/15/2018 10:51:09 78.70, 28.74 87.61 10/15/2018 10:51:21 78.72, 28.66 87.63 2.98 12
7 10/15/2018 11:41:51 -78.69,-164.02 92.40 10/15/2018 11:42:26 -78.71,-163.98 92.38 2.11 35
8 10/15/2018 12:32:31 78.69, 3.29 87.61 10/15/2018 12:33:21 78.69, 3.41 87.63 2.57 50
9 10/15/2018 13:23:13 -78.67, 170.54 92.40 10/15/2018 13:24:27 -78.70, 170.52 92.35 3.61 74
10 10/26/2018 05:19:02 78.76, 112.11 91.54 10/26/2018 05:17:54 78.75, 112.24 91.52 3.00 68
11 10/26/2018 06:09:44 -78.74, -80.67 88.48 10/26/2018 06:08:59 -78.75, -80.58 88.47 2.35 45
12 10/26/2018 07:00:24 78.74, 86.67 91.54 10/26/2018 06:59:55 78.75, 86.74 91.54 1.72 29
13 10/26/2018 07:51:06 -78.72,-106.11 88.47 10/26/2018 07:51:00 -78.75,-106.08 88.45 3.23 6
14 10/26/2018 08:41:46 78.73, 61.22 91.54 10/26/2018 08:41:56 78.74, 61.25 91.57 2.25 10
15 10/26/2018 09:32:27 -78.75,-131.32 88.42 10/26/2018 09:33:00 -78.72,-131.33 88.44 3.10 33
16 10/26/2018 10:23:08 78.71, 35.78 91.55 10/26/2018 10:23:57 78.74, 35.76 91.59 3.92 49
17 10/26/2018 11:13:49 -78.73,-156.76 88.42 10/26/2018 11:15:01 -78.72,-156.82 88.42 1.91 72




NCC Satellite Simultaneous Nadir Overpasses (SNOs) Prediction Service
